Weather History for Lillooet, BC

Change the Weather History Date:

Tuesday, January 14, 2014

  Actual Average Record
Temperature  
Mean Temperature 46 °F -  
Max Temperature 52 °F - - ()
Min Temperature 39 °F - - ()
Degree Days  
Heating Degree Days 20    
Moisture  
Dew Point 36 °F    
Average Humidity 68    
Maximum Humidity 85    
Minimum Humidity 43    
Precipitation  
Precipitation 0.00 in - - ()
Sea Level Pressure  
Sea Level Pressure 30.45 in    
Wind  
Wind Speed - ()    
Max Wind Speed -    
Max Gust Speed -    
T = Trace of Precipitation, MM = Missing Value Source: Averaged Metar Reports

Daily Weather History Graph

Daily Weather History Graph

Search for Another Location

Airport:

Trip Planner

Search our weather history database for the weather conditions in past years. The results will help you decide how hot, cold, wet, or windy it might be!

Date:

Astronomy

Jan. 14, 2014 Rise Set
Actual Time 8:03 AM PST 4:30 PM PST
Civil Twilight 7:26 AM PST 5:08 PM PST
Nautical Twilight 6:44 AM PST 5:49 PM PST
Astronomical Twilight 6:05 AM PST 6:28 PM PST
Moon 3:44 PM PST (1/14) 6:39 AM PST (1/14)
Length of Visible Light 9h 42m
Length of Day
8h 26m
Waxing Gibbous, 98% of the Moon is Illuminated
Jan 14
Waxing Gibbous
Jan 15
Full
Jan 23
Last Quarter
Jan 30
New
Feb 6
First Quarter

Hourly Weather History & Observations

Time (PST) Temp. Dew Point Humidity Pressure Visibility Wind Dir Wind Speed Gust Speed Precip Events Conditions
12:00 AM 40.5 °F 35.4 °F 82% 30.45 in - North - - N/A   Unknown
1:00 AM 39.7 °F 35.4 °F 85% 30.45 in - North - - N/A   Unknown
2:00 AM 39.6 °F 35.4 °F 85% 30.45 in - North - - N/A   Unknown
3:00 AM 40.8 °F 35.8 °F 82% 30.45 in - North - - N/A   Unknown
4:00 AM 43 °F 35 °F 66% 30.47 in - Calm Calm - -  
4:00 AM 42.8 °F 35.4 °F 75% 30.47 in - North - - N/A   Unknown
5:00 AM 43.3 °F 36.1 °F 76% 30.48 in - North - - N/A   Unknown
6:00 AM 42.4 °F 36.5 °F 79% 30.49 in - North - - N/A   Unknown
7:00 AM 42.8 °F 36.3 °F 78% 30.48 in - North - - N/A   Unknown
8:00 AM 43.5 °F 36.9 °F 77% 30.48 in - North - - N/A   Unknown
9:00 AM 44.1 °F 37.0 °F 76% 30.49 in - North - - N/A   Unknown
10:00 AM 49 °F 37 °F 54% 30.49 in - Calm Calm - -  
10:00 AM 49.5 °F 37.4 °F 63% 30.49 in - North - - N/A   Unknown
11:00 AM 48.2 °F 37.9 °F 68% 30.48 in - North - - N/A   Unknown
12:00 PM 50.5 °F 38.3 °F 63% 30.46 in - North - - N/A   Unknown
1:00 PM 50.4 °F 38.3 °F 63% 30.44 in - North - - N/A   Unknown
2:00 PM 50.9 °F 37.2 °F 59% 30.44 in - North - - N/A   Unknown
3:00 PM 52.0 °F 34.0 °F 50% 30.44 in - North - - N/A   Unknown
4:00 PM 51 °F 35 °F 43% 30.43 in - Calm Calm - -  
4:00 PM 51.3 °F 35.1 °F 54% 30.43 in - North - - N/A   Unknown
5:00 PM 51.3 °F 33.4 °F 51% 30.43 in - North - - N/A   Unknown
6:00 PM 49.3 °F 34.3 °F 56% 30.41 in - North - - N/A   Unknown
7:00 PM 45.3 °F 35.1 °F 67% 30.40 in - North - - N/A   Unknown
8:00 PM 45.0 °F 36.1 °F 71% 30.39 in - North - - N/A   Unknown
9:00 PM 43.5 °F 35.6 °F 74% 30.39 in - North - - N/A   Unknown
10:00 PM 45 °F 35 °F 59% 30.40 in - Calm Calm - -  
10:00 PM 44.6 °F 35.4 °F 70% 30.40 in - North - - N/A   Unknown
11:00 PM 41.4 °F 34.5 °F 77% 30.44 in - North - - N/A   Unknown